Vertical_Velocity
-3 14 12 -1 -10 -5 -1 -6 -0 -0 -4 -1 2 0 -4 0 -4 -10 -2 -0 2 1 -1 -1 -3 0 -2 -1 -2 0 2 -1 -2 1 -2 -2 -0 -0 -0 -1 1 -2 -1 -0 1 -1 -2 -0 -0
2 8 2 2 -8 -1 -6 -2 -1 -2 -3 0 7 -0 -1 -0 0 0 -4 3 1 1 0 -1 -2 -2 -2 -1 1 -2 -2 -1 -1 0 -3 0 -0 -2 -0 -4 4 -0 -2 1 -2 -1 -2 -1 1
5 8 -0 -1 -1 -3 -4 -1 -2 -4 0 -1 2 2 1 -1 1 -1 -1 -3 2 3 -1 -2 -0 -0 -1 0 2 -1 -2 -1 -1 -3 -2 -1 -1 -2 -1 -0 2 -1 -0 -2 -1 -1 -2 -1 -2
6 5 2 0 -4 -5 -4 -3 1 -2 -10 1 5 -2 -0 -3 2 2 0 -0 -1 -0 -1 1 0 1 -1 -1 -2 2 0 1 0 -2 -2 -2 -0 -2 -1 -1 1 0 -3 -0 0 -2 -2 -2 -1
7 2 1 1 -3 -4 -1 -5 -2 -0 -2 -3 7 1 0 4 -2 0 -1 1 -2 1 0 0 1 1 -1 1 0 2 -1 -2 -1 -0 -1 -0 0 -3 -1 -2 -1 -0 -2 -1 -1 -1 -2 -1 -2
3 1 2 -1 -4 -4 -2 8 1 0 -1 -6 1 -0 1 2 -1 3 2 1 4 -1 2 -2 2 1 3 1 -1 -1 1 0 1 -0 -1 0 -3 -0 0 -2 -2 -2 -2 -1 -1 -2 -2 -1 -0
-0 -1 -2 -2 -7 0 -7 4 2 0 0 -8 1 -2 4 9 1 1 4 1 2 3 -1 -0 1 2 2 0 -0 0 1 1 0 1 1 -2 -1 -0 -2 -1 -2 -2 -1 -1 -2 -3 -1 -1 -0
2 -3 2 -1 -3 -21 -8 -2 -4 11 -9 9 6 -3 -2 1 -1 -1 2 2 1 1 -0 -3 1 1 2 1 2 -2 -1 0 -1 1 1 -1 -1 -1 -1 -1 -1 -1 -1 -2 -2 1 2 1 0
2 -2 -0 -3 0 -14 2 -1 -13 -18 8 3 2 -4 13 -4 -0 1 -0 6 6 3 2 1 -1 1 1 -1 1 1 1 -0 -1 -1 1 -1 -0 -1 1 1 0 -0 -1 -1 0 0 0 -1 -1
1 0 -5 -4 -2 -1 1 1 -0 3 2 -7 1 8 7 6 2 -3 -3 -2 2 2 1 2 -0 -2 -1 0 -0 2 -0 -1 -0 -1 -2 -1 -0 2 0 0 1 1 1 2 1 0 0 -1 -0
-2 -4 -2 1 -1 -0 0 2 -3 -4 -3 -10 -4 -3 -2 6 3 4 4 1 -5 -0 3 1 0 -1 -3 -2 -1 0 -1 -2 0 1 -0 -3 -2 -0 1 -1 0 2 1 0 1 1 2 0 1
5 -1 0 -2 -2 -1 -1 1 2 2 -28 -1 -11 20 11 -1 -9 -4 -2 -1 -7 -4 -2 3 2 1 0 1 -1 0 -1 -1 -1 -0 0 -0 -1 -2 -1 0 -1 -1 -0 1 0 1 1 1 0
5 -1 -0 -0 1 -1 1 -0 -0 -4 18 -29 1 6 6 5 1 -0 10 6 -2 -3 -1 -2 1 1 -1 -0 1 0 0 -1 1 1 0 -1 1 1 2 -2 -1 2 -0 -2 -0 -1 -1 -1 1
-1 -2 -1 0 -2 -1 2 -2 2 2 3 -1 -15 7 4 7 1 8 -2 1 0 2 -1 -2 -2 1 0 0 -0 -1 -1 1 -0 1 -0 -0 1 1 0 -1 -1 -1 -0 1 0 -1 1 -1 0
-1 1 1 0 -1 -1 1 0 -2 -2 4 5 -9 2 3 1 1 -6 5 1 3 2 -2 -4 -1 -1 -2 -1 -1 1 1 -0 -1 0 2 1 0 -1 -1 -1 -1 1 2 -1 -1 -0 -0 -1 -0
7 -0 3 -5 1 -6 -1 -15 0 -5 1 3 -3 2 -1 6 -10 2 -0 10 1 2 2 4 -3 -0 -0 -1 1 2 1 0 1 -0 -1 -2 -1 -1 -1 -1 -1 3 -0 0 -1 -0 0 -0 -0
4 -2 1 -1 -1 -1 -3 -3 -3 -1 2 -1 2 4 -1 -2 3 0 -0 2 -1 -2 1 1 3 0 0 1 -1 -0 -0 -1 1 1 -1 -1 0 -1 -1 1 1 1 -0 -1 -1 -1 2 0 1
-5 2 1 -2 0 2 1 -1 -1 0 3 -2 2 -2 4 -3 -5 4 3 -2 -1 1 -1 2 5 -0 5 6 2 -2 -0 2 1 1 0 1 -2 -1 -0 -1 -1 1 1 0 -1 1 1 2 5
-2 -1 -1 -0 -2 -3 -2 -0 -3 -2 1 -1 -3 -1 -1 -0 -1 4 -1 7 1 1 1 -1 -1 3 2 -3 -2 -1 -2 -3 -3 -2 -0 -1 -1 1 0 -1 0 1 -3 2 1 4 1 2 2
0 -1 0 1 0 -2 0 -4 -2 -0 -2 -4 -3 -3 -4 -2 3 1 5 -1 6 -3 -1 -1 -3 4 1 2 3 4 0 -3 -1 0 -0 1 1 0 1 0 3 1 1 0 0 2 -0 2 3
0 -3 0 -4 1 1 -2 -3 0 -5 1 1 -3 -2 -1 -6 -6 1 -0 2 3 6 -2 -2 -3 -3 0 4 3 4 3 4 0 -2 2 -0 4 3 2 1 2 4 0 -3 3 5 2 -0 4
1 -2 -0 1 -0 -4 -5 -7 -1 -2 -3 1 -4 -4 -1 2 2 0 -1 -2 -0 -0 3 -0 1 1 1 3 5 2 -3 1 0 2 5 6 -1 0 1 -1 2 1 3 -3 1 5 0 3 -1
-3 -0 -2 0 0 -1 2 2 -12 2 1 -5 -2 -2 -6 -3 -1 -3 -5 -0 6 6 4 3 2 2 1 -1 -1 2 -1 2 3 4 3 3 5 4 1 4 3 -0 2 2 2 1 4 4 9
-3 0 -1 -0 -0 3 -4 -1 -7 -2 -13 -3 -1 -2 -5 0 2 5 3 1 2 5 5 3 2 3 2 -0 -1 -1 -2 0 1 0 -2 2 3 2 2 3 1 1 3 1 2 4 3 7 2
4 2 3 6 4 -5 -0 3 -15 -2 -2 -3 -3 -4 -6 0 4 1 -1 -2 -1 -2 -1 3 5 4 2 1 -1 -2 -2 -0 -2 -0 -0 -2 1 -1 -1 -2 -5 -3 -1 -3 -1 1 5 1 -2
-3 -2 -2 -4 -2 -4 0 -4 -17 -2 -1 -4 1 1 6 6 5 2 -0 -1 -1 -1 -2 -2 -0 2 2 0 3 3 0 1 2 1 -1 -2 -4 -4 0 -0 -2 -1 0 -4 1 2 3 4 6
3 1 -1 -1 -1 -4 -4 -7 -8 -0 -1 1 2 3 3 1 1 -0 -0 0 -0 -0 -0 -1 -1 -0 0 0 -1 -1 3 1 -1 -1 1 1 1 0 0 1 3 2 4 -1 -1 -3 -2 -1 1
-0 -1 0 -2 -4 -1 -3 -1 -6 -1 -0 1 2 1 4 5 2 1 1 1 1 1 0 -1 -2 -1 -1 0 0 0 -1 -0 2 2 -0 1 0 1 2 2 2 4 2 2 1 -1 -3 2 0
5 2 2 -6 -4 -5 -2 -9 -4 -3 -2 -2 -0 -0 -1 1 1 0 1 1 1 -1 -0 1 -1 1 0 -1 -1 -0 -0 0 -0 1 2 1 2 1 1 1 2 3 4 3 2 3 0 2 0
-1 -2 -1 -6 -1 -1 -3 -12 0 -1 -1 -2 -0 -1 1 0 -1 1 1 -0 1 -0 -1 -2 -1 -1 -1 -1 -1 -0 0 1 1 1 1 1 1 1 3 2 1 1 1 0 1 -2 -2 -1 -0
Height
1522 1521 1523 1525 1535 1538 1540 1527 1512 1512 1510 1506 1503 1505 1505 1507 1508 1521 1509 1514 1517 1519 1523 1528 1533 1538 1541 1544 1546 1548 1549 1551 1553 1553 1554 1555 1556 1557 1559 1559 1559 1559 1559 1558 1557 1558 1559 1560 1562
1519 1519 1523 1521 1536 1545 1538 1519 1514 1508 1506 1505 1504 1504 1506 1510 1508 1507 1510 1515 1519 1520 1523 1528 1533 1537 1541 1543 1546 1548 1549 1551 1553 1554 1555 1556 1556 1557 1559 1560 1561 1561 1560 1560 1560 1560 1561 1562 1564
1515 1516 1518 1520 1531 1537 1533 1513 1509 1507 1504 1505 1500 1502 1505 1507 1508 1508 1512 1514 1518 1520 1524 1528 1533 1537 1540 1543 1546 1547 1549 1551 1553 1553 1554 1554 1556 1557 1558 1560 1562 1562 1562 1562 1562 1562 1564 1565 1566
1512 1514 1516 1519 1514 1518 1515 1508 1510 1507 1503 1502 1498 1503 1506 1506 1508 1509 1511 1515 1518 1521 1525 1529 1534 1537 1540 1543 1545 1548 1549 1551 1553 1554 1554 1554 1556 1557 1558 1560 1562 1563 1564 1564 1564 1565 1566 1567 1568
1509 1511 1517 1519 1514 1503 1505 1502 1512 1510 1508 1502 1500 1503 1504 1507 1508 1509 1511 1514 1517 1521 1525 1529 1534 1537 1540 1543 1546 1548 1549 1551 1553 1554 1554 1555 1556 1557 1559 1561 1563 1564 1565 1566 1566 1567 1568 1569 1570
1507 1506 1511 1514 1510 1501 1497 1502 1509 1509 1506 1502 1501 1501 1505 1507 1508 1509 1511 1515 1519 1521 1525 1530 1534 1538 1541 1543 1546 1548 1549 1551 1552 1554 1554 1556 1557 1558 1560 1561 1563 1564 1566 1567 1567 1568 1569 1570 1571
1503 1505 1507 1506 1505 1506 1498 1503 1508 1508 1508 1503 1501 1503 1504 1507 1508 1510 1513 1517 1520 1523 1526 1531 1535 1538 1541 1543 1546 1549 1550 1551 1552 1553 1555 1556 1557 1559 1560 1562 1563 1565 1566 1567 1568 1570 1571 1571 1572
1502 1501 1503 1503 1503 1499 1494 1506 1504 1505 1504 1502 1500 1502 1504 1505 1507 1512 1516 1519 1522 1525 1527 1531 1535 1538 1541 1543 1546 1548 1550 1551 1553 1553 1554 1556 1557 1559 1560 1562 1563 1565 1567 1568 1569 1571 1572 1573 1573
1500 1505 1503 1495 1499 1493 1496 1502 1504 1501 1503 1502 1500 1498 1497 1500 1506 1511 1516 1519 1522 1525 1527 1530 1534 1537 1539 1542 1545 1548 1550 1551 1552 1554 1554 1555 1557 1558 1560 1562 1564 1565 1567 1568 1570 1571 1572 1573 1574
1494 1499 1492 1486 1488 1491 1492 1499 1500 1503 1501 1503 1500 1495 1497 1501 1504 1508 1513 1517 1520 1522 1526 1529 1532 1535 1539 1542 1544 1546 1548 1550 1552 1554 1554 1555 1557 1558 1560 1562 1563 1565 1567 1569 1570 1571 1572 1573 1574
1488 1482 1486 1486 1489 1490 1492 1496 1496 1505 1501 1504 1503 1497 1500 1504 1508 1508 1512 1515 1519 1523 1525 1527 1530 1534 1537 1540 1543 1545 1547 1549 1551 1553 1555 1556 1557 1558 1559 1561 1562 1564 1566 1568 1569 1570 1572 1573 1573
1486 1485 1487 1488 1489 1490 1491 1493 1494 1501 1499 1500 1503 1503 1498 1502 1507 1508 1510 1513 1517 1521 1525 1527 1530 1533 1536 1539 1541 1544 1546 1548 1550 1552 1553 1554 1556 1558 1559 1561 1563 1564 1566 1567 1569 1570 1571 1572 1573
1484 1484 1487 1488 1490 1491 1493 1492 1494 1495 1495 1499 1501 1500 1501 1499 1503 1507 1511 1512 1515 1519 1522 1525 1529 1532 1535 1538 1540 1542 1545 1547 1550 1551 1552 1553 1555 1557 1558 1560 1562 1563 1564 1566 1567 1569 1570 1571 1573
1480 1483 1486 1487 1487 1490 1493 1492 1492 1489 1493 1500 1502 1498 1497 1498 1500 1506 1510 1513 1513 1517 1520 1524 1527 1531 1533 1536 1539 1541 1543 1545 1548 1549 1550 1552 1554 1556 1558 1559 1560 1561 1562 1564 1566 1567 1568 1570 1572
1478 1482 1484 1486 1485 1486 1489 1492 1487 1487 1491 1494 1502 1497 1496 1496 1502 1504 1506 1508 1511 1515 1519 1522 1525 1528 1531 1535 1538 1540 1542 1543 1546 1548 1549 1551 1552 1555 1556 1557 1558 1560 1561 1562 1564 1565 1567 1568 1569
1477 1481 1488 1478 1482 1483 1486 1485 1484 1484 1489 1491 1495 1495 1494 1496 1499 1503 1506 1509 1511 1514 1517 1520 1522 1525 1528 1532 1535 1538 1540 1542 1543 1546 1548 1549 1551 1552 1553 1555 1557 1559 1560 1561 1562 1564 1564 1565 1566
1474 1479 1482 1479 1477 1482 1485 1486 1478 1483 1485 1484 1487 1490 1490 1493 1497 1500 1503 1506 1508 1511 1515 1518 1520 1522 1525 1530 1533 1535 1538 1540 1541 1543 1545 1547 1548 1550 1551 1553 1555 1557 1557 1558 1560 1561 1561 1562 1563
1463 1474 1482 1482 1478 1479 1483 1485 1480 1480 1482 1481 1482 1485 1488 1490 1495 1498 1501 1503 1505 1509 1512 1515 1519 1522 1524 1527 1530 1533 1535 1538 1540 1541 1542 1544 1546 1547 1549 1551 1553 1554 1554 1555 1557 1558 1559 1560 1562
1463 1467 1479 1480 1476 1479 1484 1484 1481 1479 1479 1481 1481 1483 1484 1487 1493 1496 1498 1501 1502 1504 1507 1511 1515 1519 1521 1523 1526 1529 1531 1534 1537 1538 1540 1541 1543 1545 1546 1548 1549 1550 1551 1552 1554 1556 1557 1557 1559
1467 1470 1476 1475 1476 1481 1484 1483 1481 1479 1477 1479 1479 1480 1482 1485 1489 1492 1495 1497 1499 1500 1502 1506 1511 1515 1517 1521 1523 1525 1529 1531 1533 1535 1536 1538 1540 1541 1543 1544 1545 1546 1547 1548 1550 1551 1552 1553 1555
1469 1467 1475 1474 1476 1481 1482 1485 1482 1473 1474 1477 1476 1476 1479 1481 1484 1487 1489 1492 1495 1498 1499 1502 1506 1510 1514 1517 1519 1522 1525 1527 1529 1530 1530 1534 1535 1537 1538 1540 1541 1542 1543 1545 1546 1547 1547 1548 1551
1468 1471 1472 1471 1480 1490 1482 1498 1481 1474 1472 1471 1470 1470 1470 1475 1480 1481 1483 1487 1491 1494 1497 1499 1502 1505 1508 1511 1514 1517 1519 1521 1523 1525 1527 1530 1531 1532 1534 1535 1535 1536 1538 1539 1541 1542 1543 1543 1544
1476 1469 1473 1477 1480 1482 1483 1487 1477 1472 1467 1459 1461 1464 1468 1471 1476 1478 1480 1482 1484 1489 1492 1495 1499 1501 1503 1506 1509 1512 1514 1517 1520 1522 1524 1524 1526 1527 1528 1529 1530 1531 1532 1533 1535 1536 1537 1537 1538
1472 1471 1476 1480 1482 1484 1480 1478 1475 1466 1455 1453 1456 1458 1462 1467 1471 1475 1478 1481 1483 1486 1489 1493 1496 1497 1499 1502 1505 1507 1509 1511 1513 1515 1516 1518 1520 1521 1522 1523 1523 1525 1526 1527 1528 1530 1530 1530 1531
1471 1474 1472 1473 1474 1474 1472 1480 1455 1451 1450 1449 1451 1453 1457 1461 1465 1469 1474 1478 1482 1486 1489 1492 1494 1495 1496 1498 1500 1503 1504 1506 1507 1508 1510 1511 1513 1514 1516 1517 1519 1520 1521 1521 1522 1522 1522 1524 1524
1469 1471 1460 1462 1470 1477 1472 1470 1456 1447 1446 1446 1444 1445 1449 1454 1460 1465 1470 1475 1479 1483 1486 1488 1490 1491 1492 1494 1495 1497 1498 1500 1501 1502 1504 1505 1507 1508 1510 1511 1513 1514 1516 1516 1516 1517 1517 1517 1517
1469 1471 1470 1475 1476 1474 1474 1460 1450 1446 1444 1442 1442 1441 1446 1453 1459 1463 1468 1471 1474 1477 1480 1482 1485 1486 1488 1490 1490 1492 1492 1493 1495 1496 1497 1499 1501 1502 1503 1505 1507 1508 1509 1510 1510 1511 1511 1511 1511
1461 1459 1473 1481 1475 1480 1475 1463 1455 1448 1445 1444 1444 1445 1449 1453 1458 1462 1466 1468 1471 1474 1477 1479 1482 1484 1485 1486 1487 1488 1488 1489 1490 1490 1491 1492 1494 1495 1497 1499 1501 1502 1503 1504 1503 1505 1506 1506 1506
1457 1461 1469 1461 1468 1482 1492 1463 1443 1442 1442 1444 1447 1449 1451 1454 1457 1461 1464 1467 1470 1473 1476 1478 1480 1481 1482 1482 1483 1484 1484 1484 1485 1486 1486 1487 1489 1490 1491 1492 1494 1495 1496 1496 1497 1498 1500 1500 1500
1445 1452 1452 1461 1464 1485 1481 1463 1438 1438 1438 1445 1445 1448 1452 1455 1458 1461 1464 1466 1468 1471 1473 1475 1478 1478 1479 1479 1480 1480 1480 1480 1479 1480 1481 1482 1483 1485 1485 1486 1487 1489 1489 1489 1490 1492 1494 1495 1496